Weather History for Silver City, NM

Change the Weather History Date:

Sunday, March 3, 2013

  Actual Average (KDMN) Record (KDMN)
Temperature  
Mean Temperature 52 °F 49 °F  
Max Temperature 69 °F 65 °F 83 °F (2009)
Min Temperature 35 °F 34 °F 11 °F (1971)
Degree Days  
Heating Degree Days 13    
Growing Degree Days 2 (Base 50)    
Moisture  
Dew Point 8 °F    
Average Humidity 19    
Maximum Humidity 33    
Minimum Humidity 6    
Precipitation  
Precipitation 0.00 in 0.02 in 0.32 in (1992)
Month to date precipitation 0.06  
Year to date precipitation 1.26  
Sea Level Pressure  
Sea Level Pressure 30.13 in    
Wind  
Wind Speed 12 mph (NW)    
Max Wind Speed 34 mph    
Max Gust Speed 40 mph    
Visibility 10 miles    
Events      
T = Trace of Precipitation, MM = Missing Value Source: NWS Daily Summary

Daily Weather History Graph

Daily Weather History Graph

Search for Another Location

Airport:

Trip Planner

Search our weather history database for the weather conditions in past years. The results will help you decide how hot, cold, wet, or windy it might be!

Date:

Astronomy

Mar. 03, 2013 Rise Set
Actual Time 6:37 AM MST 6:11 PM MST
Civil Twilight 6:12 AM MST 6:36 PM MST
Nautical Twilight 5:44 AM MST 7:05 PM MST
Astronomical Twilight 5:15 AM MST 7:33 PM MST
Moon No Moon Rise 10:17 AM MST (3/3)
Length of Visible Light 12h 23m
Length of Day
11h 34m
Waning Gibbous, 63% of the Moon is Illuminated
Mar 3
Waning Gibbous
Mar 4
Last Quarter
Mar 11
New
Mar 19
First Quarter
Mar 27
Full

Hourly Weather History & Observations

Time (MST) Temp. Windchill Dew Point Humidity Pressure Visibility Wind Dir Wind Speed Gust Speed Precip Events Conditions
12:15 AM 37.4 °F 32.1 °F 8.6 °F 30% 30.28 in 10.0 mi NW 6.9 mph - N/A   Clear
12:55 AM 37.4 °F 29.8 °F 8.6 °F 30% 30.26 in 10.0 mi North 11.5 mph - N/A   Clear
1:15 AM 37.4 °F 30.8 °F 8.6 °F 30% 30.26 in 10.0 mi North 9.2 mph - N/A   Clear
1:35 AM 37.4 °F 29.8 °F 8.6 °F 30% 30.25 in 10.0 mi North 11.5 mph - N/A   Clear
1:55 AM 37.4 °F 29.3 °F 8.6 °F 30% 30.25 in 10.0 mi North 12.7 mph - N/A   Clear
2:15 AM 37.4 °F 28.9 °F 8.6 °F 30% 30.24 in 10.0 mi North 13.8 mph - N/A   Clear
2:35 AM 35.6 °F 26.6 °F 8.6 °F 33% 30.23 in 10.0 mi North 13.8 mph - N/A   Clear
2:55 AM 37.4 °F 29.8 °F 8.6 °F 30% 30.22 in 10.0 mi North 11.5 mph - N/A   Clear
3:15 AM 37.4 °F 29.3 °F 6.8 °F 28% 30.21 in 10.0 mi North 12.7 mph - N/A   Clear
3:35 AM 37.4 °F 29.8 °F 6.8 °F 28% 30.21 in 10.0 mi North 11.5 mph - N/A   Clear
3:55 AM 37.4 °F 29.8 °F 8.6 °F 30% 30.20 in 10.0 mi North 11.5 mph - N/A   Clear
4:35 AM 37.4 °F 34.9 °F 8.6 °F 30% 30.19 in 10.0 mi North 3.5 mph - N/A   Clear
4:55 AM 37.4 °F 32.8 °F 8.6 °F 30% 30.19 in 10.0 mi North 5.8 mph - N/A   Clear
5:15 AM 39.2 °F 37.0 °F 8.6 °F 28% 30.19 in 10.0 mi NNW 3.5 mph - N/A   Clear
5:35 AM 37.4 °F 29.3 °F 10.4 °F 33% 30.19 in 10.0 mi NNW 12.7 mph - N/A   Clear
5:55 AM 37.4 °F 29.8 °F 10.4 °F 33% 30.18 in 10.0 mi NNW 11.5 mph - N/A   Clear
6:15 AM 37.4 °F 29.8 °F 10.4 °F 33% 30.18 in 10.0 mi NNW 11.5 mph - N/A   Clear
6:35 AM 37.4 °F 30.8 °F 10.4 °F 33% 30.18 in 10.0 mi NNW 9.2 mph - N/A   Clear
6:55 AM 39.2 °F 32.5 °F 10.4 °F 31% 30.18 in 10.0 mi NNW 10.4 mph - N/A   Clear
7:15 AM 41.0 °F 33.9 °F 10.4 °F 29% 30.18 in 10.0 mi NW 12.7 mph - N/A   Clear
7:35 AM 46.4 °F 41.5 °F 10.4 °F 23% 30.19 in 10.0 mi NW 10.4 mph - N/A   Clear
7:55 AM 50.0 °F - 12.2 °F 22% 30.20 in 10.0 mi NW 10.4 mph - N/A   Clear
8:15 AM 53.6 °F - 12.2 °F 19% 30.19 in 10.0 mi NW 6.9 mph - N/A   Clear
8:55 AM 59.0 °F - 10.4 °F 15% 30.19 in 10.0 mi WNW 8.1 mph - N/A   Clear
9:15 AM 60.8 °F - 10.4 °F 14% 30.19 in 10.0 mi WNW 4.6 mph - N/A   Clear
9:55 AM 62.6 °F - 10.4 °F 13% 30.17 in 10.0 mi WSW 4.6 mph - N/A   Clear
10:15 AM 64.4 °F - 10.4 °F 12% 30.16 in 10.0 mi South 4.6 mph - N/A   Clear
10:35 AM 66.2 °F - 10.4 °F 11% 30.16 in 10.0 mi West 9.2 mph - N/A   Clear
10:55 AM 68.0 °F - 8.6 °F 10% 30.14 in 10.0 mi WNW 18.4 mph 27.6 mph N/A   Clear
11:15 AM 68.0 °F - 6.8 °F 9% 30.14 in 10.0 mi West 13.8 mph 24.2 mph N/A   Clear
11:35 AM 68.0 °F - 5.0 °F 8% 30.13 in 10.0 mi West 17.3 mph 24.2 mph N/A   Clear
11:55 AM 69.8 °F - 3.2 °F 7% 30.12 in 10.0 mi West 17.3 mph 28.8 mph N/A   Clear
12:15 PM 68.0 °F - 3.2 °F 8% 30.11 in 10.0 mi West 20.7 mph 28.8 mph N/A   Clear
12:35 PM 68.0 °F - 1.4 °F 7% 30.10 in 10.0 mi West 19.6 mph 34.5 mph N/A   Clear
12:55 PM 69.8 °F - -0.4 °F 6% 30.09 in 10.0 mi WNW 25.3 mph 34.5 mph N/A   Clear
1:15 PM 69.8 °F - -0.4 °F 6% 30.07 in 10.0 mi WNW 23.0 mph 29.9 mph N/A   Clear
2:15 PM 68.0 °F - 1.4 °F 7% 30.06 in 10.0 mi West 28.8 mph 39.1 mph N/A   Clear
2:55 PM 69.8 °F - 3.2 °F 7% 30.05 in 10.0 mi WNW 29.9 mph 40.3 mph N/A   Clear
3:35 PM 66.2 °F - 5.0 °F 9% 30.04 in 10.0 mi WNW 24.2 mph 32.2 mph N/A   Clear
3:55 PM 68.0 °F - 5.0 °F 8% 30.03 in 10.0 mi West 29.9 mph 33.4 mph N/A   Clear
4:15 PM 68.0 °F - 6.8 °F 9% 30.04 in 10.0 mi WNW 29.9 mph 35.7 mph N/A   Clear
4:35 PM 66.2 °F - 5.0 °F 9% 30.04 in 10.0 mi WNW 34.5 mph 39.1 mph N/A   Clear
4:55 PM 64.4 °F - 8.6 °F 11% 30.05 in 10.0 mi WNW 27.6 mph 35.7 mph N/A   Clear
5:15 PM 64.4 °F - 6.8 °F 10% 30.05 in 10.0 mi WNW 19.6 mph 27.6 mph N/A   Clear
5:35 PM 62.6 °F - 5.0 °F 10% 30.05 in 10.0 mi WNW 18.4 mph 32.2 mph N/A   Clear
5:55 PM 60.8 °F - 5.0 °F 11% 30.06 in 10.0 mi WNW 13.8 mph - N/A   Partly Cloudy
6:15 PM 59.0 °F - 5.0 °F 12% 30.06 in 10.0 mi WNW 12.7 mph - N/A   Clear
6:35 PM 59.0 °F - 6.8 °F 13% 30.04 in 10.0 mi NW 6.9 mph - N/A   Clear
6:55 PM 59.0 °F - 6.8 °F 13% 30.04 in 10.0 mi WNW 9.2 mph - N/A   Clear
7:15 PM 59.0 °F - 8.6 °F 14% 30.05 in 10.0 mi NW 10.4 mph - N/A   Clear
7:35 PM 57.2 °F - 8.6 °F 14% 30.06 in 10.0 mi WNW 12.7 mph - N/A   Clear
7:55 PM 57.2 °F - 8.6 °F 14% 30.08 in 10.0 mi WNW 17.3 mph 23.0 mph N/A   Clear
8:15 PM 59.0 °F - 8.6 °F 14% 30.06 in 10.0 mi NW 12.7 mph - N/A   Clear
8:35 PM 57.2 °F - 8.6 °F 14% 30.07 in 10.0 mi WNW 17.3 mph - N/A   Clear
8:55 PM 57.2 °F - 8.6 °F 14% 30.07 in 10.0 mi WNW 16.1 mph - N/A   Clear
9:15 PM 55.4 °F - 8.6 °F 15% 30.08 in 10.0 mi WNW 13.8 mph - N/A   Clear
9:35 PM 51.8 °F - 8.6 °F 18% 30.07 in 10.0 mi NW 10.4 mph - N/A   Clear
9:55 PM 48.2 °F - 8.6 °F 20% 30.07 in 10.0 mi NNW 11.5 mph - N/A   Clear
10:15 PM 53.6 °F - 10.4 °F 18% 30.07 in 10.0 mi WNW 8.1 mph - N/A   Clear
10:35 PM 50.0 °F - 10.4 °F 20% 30.07 in 10.0 mi WNW 12.7 mph - N/A   Clear
10:55 PM 50.0 °F - 10.4 °F 20% 30.06 in 10.0 mi WNW 12.7 mph - N/A   Clear
11:15 PM 53.6 °F - 14.0 °F 21% 30.05 in 10.0 mi WNW 13.8 mph 20.7 mph N/A   Scattered Clouds
11:35 PM 55.4 °F - 15.8 °F 21% 30.05 in 10.0 mi WNW 12.7 mph - N/A   Mostly Cloudy
11:55 PM 55.4 °F - 15.8 °F 21% 30.04 in 10.0 mi WNW 10.4 mph - N/A   Mostly Cloudy